owner,sensor,date,latitude,longitude,relative_humidity,qcFlag 
LUMCON,ioos:station:LUMCON:101:1,2010-11-01T15:00:00Z,29.2533,-90.6633,77.4,1111122 
LUMCON,ioos:station:LUMCON:101:1,2010-11-01T16:00:00Z,29.2533,-90.6633,73.7,1111122 
LUMCON,ioos:station:LUMCON:101:1,2010-11-01T17:00:00Z,29.2533,-90.6633,71.1,1111122 
LUMCON,ioos:station:LUMCON:101:1,2010-11-01T18:00:00Z,29.2533,-90.6633,71.6,1111122 
LUMCON,ioos:station:LUMCON:101:1,2010-11-01T19:00:00Z,29.2533,-90.6633,69.4,1111122 
LUMCON,ioos:station:LUMCON:101:1,2010-11-01T21:00:00Z,29.2533,-90.6633,68.5,1111122 
LUMCON,ioos:station:LUMCON:101:1,2010-11-01T22:00:00Z,29.2533,-90.6633,71.5,1111122 
LUMCON,ioos:station:LUMCON:101:1,2010-11-01T23:00:00Z,29.2533,-90.6633,76.0,1111122 
LUMCON,ioos:station:LUMCON:101:1,2010-11-02T00:00:00Z,29.2533,-90.6633,79.3,1111122 
LUMCON,ioos:station:LUMCON:101:1,2010-11-02T01:00:00Z,29.2533,-90.6633,81.2,1111122 
LUMCON,ioos:station:LUMCON:101:1,2010-11-02T02:00:00Z,29.2533,-90.6633,82.7,1111122 
LUMCON,ioos:station:LUMCON:101:1,2010-11-02T03:00:00Z,29.2533,-90.6633,82.7,1111122 
LUMCON,ioos:station:LUMCON:101:1,2010-11-02T04:00:00Z,29.2533,-90.6633,85.3,1111122 
LUMCON,ioos:station:LUMCON:101:1,2010-11-02T05:00:00Z,29.2533,-90.6633,84.8,1111122 
LUMCON,ioos:station:LUMCON:101:1,2010-11-02T06:00:00Z,29.2533,-90.6633,81.7,1111122 
LUMCON,ioos:station:LUMCON:101:1,2010-11-02T07:00:00Z,29.2533,-90.6633,79.7,1111122 
LUMCON,ioos:station:LUMCON:101:1,2010-11-02T08:00:00Z,29.2533,-90.6633,82.2,1111122 
LUMCON,ioos:station:LUMCON:101:1,2010-11-02T09:00:00Z,29.2533,-90.6633,81.2,1111122 
LUMCON,ioos:station:LUMCON:101:1,2010-11-02T10:00:00Z,29.2533,-90.6633,83.2,1111122 
LUMCON,ioos:station:LUMCON:101:1,2010-11-02T11:00:00Z,29.2533,-90.6633,84.8,1111122 
LUMCON,ioos:station:LUMCON:101:1,2010-11-02T12:00:00Z,29.2533,-90.6633,85.3,1111122 
LUMCON,ioos:station:LUMCON:101:1,2010-11-02T13:00:00Z,29.2533,-90.6633,85.3,1111122 
LUMCON,ioos:station:LUMCON:101:1,2010-11-02T14:00:00Z,29.2533,-90.6633,82.8,1111122 
LUMCON,ioos:station:LUMCON:101:1,2010-11-02T15:00:00Z,29.2533,-90.6633,84.3,1111122 
LUMCON,ioos:station:LUMCON:101:1,2010-11-02T16:00:00Z,29.2533,-90.6633,86.4,1111122 
LUMCON,ioos:station:LUMCON:101:1,2010-11-02T17:00:00Z,29.2533,-90.6633,93.3,1111122 
LUMCON,ioos:station:LUMCON:101:1,2010-11-02T18:00:00Z,29.2533,-90.6633,95.1,1111122 
LUMCON,ioos:station:LUMCON:101:1,2010-11-02T19:00:00Z,29.2533,-90.6633,88.2,1111122 
LUMCON,ioos:station:LUMCON:101:1,2010-11-02T20:00:00Z,29.2533,-90.6633,89.9,1111122 
LUMCON,ioos:station:LUMCON:101:1,2010-11-02T21:00:00Z,29.2533,-90.6633,89.9,1111122 
LUMCON,ioos:station:LUMCON:101:1,2010-11-02T22:00:00Z,29.2533,-90.6633,90.0,1111122 
LUMCON,ioos:station:LUMCON:101:1,2010-11-02T23:00:00Z,29.2533,-90.6633,84.6,1111122 
LUMCON,ioos:station:LUMCON:101:1,2010-11-03T00:00:00Z,29.2533,-90.6633,77.5,1111122 
LUMCON,ioos:station:LUMCON:101:1,2010-11-03T01:00:00Z,29.2533,-90.6633,77.0,1111122 
LUMCON,ioos:station:LUMCON:101:1,2010-11-03T02:00:00Z,29.2533,-90.6633,83.0,1111122 
LUMCON,ioos:station:LUMCON:101:1,2010-11-03T03:00:00Z,29.2533,-90.6633,85.1,1111122 
LUMCON,ioos:station:LUMCON:101:1,2010-11-03T04:00:00Z,29.2533,-90.6633,84.6,1111122 
LUMCON,ioos:station:LUMCON:101:1,2010-11-03T05:00:00Z,29.2533,-90.6633,81.5,1111122 
LUMCON,ioos:station:LUMCON:101:1,2010-11-03T06:00:00Z,29.2533,-90.6633,81.6,1111122 
LUMCON,ioos:station:LUMCON:101:1,2010-11-03T07:00:00Z,29.2533,-90.6633,82.6,1111122 
LUMCON,ioos:station:LUMCON:101:1,2010-11-03T08:00:00Z,29.2533,-90.6633,89.3,1111122 
LUMCON,ioos:station:LUMCON:101:1,2010-11-03T09:00:00Z,29.2533,-90.6633,90.4,1111122 
LUMCON,ioos:station:LUMCON:101:1,2010-11-03T10:00:00Z,29.2533,-90.6633,92.1,1111122 
LUMCON,ioos:station:LUMCON:101:1,2010-11-03T11:00:00Z,29.2533,-90.6633,92.1,1111122 
LUMCON,ioos:station:LUMCON:101:1,2010-11-03T12:00:00Z,29.2533,-90.6633,93.3,1111122 
LUMCON,ioos:station:LUMCON:101:1,2010-11-03T13:00:00Z,29.2533,-90.6633,93.2,1111122 
LUMCON,ioos:station:LUMCON:101:1,2010-11-03T14:00:00Z,29.2533,-90.6633,91.5,1111122 
LUMCON,ioos:station:LUMCON:101:1,2010-11-03T15:00:00Z,29.2533,-90.6633,90.9,1111122 
LUMCON,ioos:station:LUMCON:101:1,2010-11-03T16:00:00Z,29.2533,-90.6633,90.4,1111122 
LUMCON,ioos:station:LUMCON:101:1,2010-11-03T17:00:00Z,29.2533,-90.6633,84.9,1111122 
LUMCON,ioos:station:LUMCON:101:1,2010-11-03T18:00:00Z,29.2533,-90.6633,78.4,1111122 
LUMCON,ioos:station:LUMCON:101:1,2010-11-03T19:00:00Z,29.2533,-90.6633,56.2,1111122 
LUMCON,ioos:station:LUMCON:101:1,2010-11-03T20:00:00Z,29.2533,-90.6633,49.2,1111122 
LUMCON,ioos:station:LUMCON:101:1,2010-11-03T21:00:00Z,29.2533,-90.6633,52.9,1111122 
LUMCON,ioos:station:LUMCON:101:1,2010-11-03T22:00:00Z,29.2533,-90.6633,58.9,1111122 
LUMCON,ioos:station:LUMCON:101:1,2010-11-03T23:00:00Z,29.2533,-90.6633,70.5,1111122 
LUMCON,ioos:station:LUMCON:101:1,2010-11-04T00:00:00Z,29.2533,-90.6633,70.1,1111122 
LUMCON,ioos:station:LUMCON:101:1,2010-11-04T01:00:00Z,29.2533,-90.6633,79.5,1111122 
LUMCON,ioos:station:LUMCON:101:1,2010-11-04T02:00:00Z,29.2533,-90.6633,82.9,1111122 
LUMCON,ioos:station:LUMCON:101:1,2010-11-04T03:00:00Z,29.2533,-90.6633,74.8,1111122 
LUMCON,ioos:station:LUMCON:101:1,2010-11-04T04:00:00Z,29.2533,-90.6633,81.8,1111122 
LUMCON,ioos:station:LUMCON:101:1,2010-11-04T05:00:00Z,29.2533,-90.6633,87.6,1111122 
LUMCON,ioos:station:LUMCON:101:1,2010-11-04T06:00:00Z,29.2533,-90.6633,86.0,1111122 
LUMCON,ioos:station:LUMCON:101:1,2010-11-04T07:00:00Z,29.2533,-90.6633,87.6,1111122 
LUMCON,ioos:station:LUMCON:101:1,2010-11-04T14:00:00Z,29.2533,-90.6633,75.1,1111122 
LUMCON,ioos:station:LUMCON:101:1,2010-11-04T15:00:00Z,29.2533,-90.6633,71.3,1111122 
LUMCON,ioos:station:LUMCON:101:1,2010-11-04T16:00:00Z,29.2533,-90.6633,58.1,1111122 
LUMCON,ioos:station:LUMCON:101:1,2010-11-04T17:00:00Z,29.2533,-90.6633,52.0,1111122 
LUMCON,ioos:station:LUMCON:101:1,2010-11-05T06:00:00Z,29.2533,-90.6633,68.2,1111122 
LUMCON,ioos:station:LUMCON:101:1,2010-11-05T07:00:00Z,29.2533,-90.6633,72.9,1111122 
LUMCON,ioos:station:LUMCON:101:1,2010-11-05T08:00:00Z,29.2533,-90.6633,70.4,1111122 
LUMCON,ioos:station:LUMCON:101:1,2010-11-05T09:00:00Z,29.2533,-90.6633,66.2,1111122 
LUMCON,ioos:station:LUMCON:101:1,2010-11-07T02:00:00Z,29.2533,-90.6633,64.7,1111122 
LUMCON,ioos:station:LUMCON:101:1,2010-11-07T03:00:00Z,29.2533,-90.6633,62.1,1111122 
LUMCON,ioos:station:LUMCON:101:1,2010-11-07T04:00:00Z,29.2533,-90.6633,67.0,1111122 
LUMCON,ioos:station:LUMCON:101:1,2010-11-07T05:00:00Z,29.2533,-90.6633,73.9,1111122 
LUMCON,ioos:station:LUMCON:101:1,2010-11-07T06:00:00Z,29.2533,-90.6633,74.4,1111122 
LUMCON,ioos:station:LUMCON:101:1,2010-11-07T14:00:00Z,29.2533,-90.6633,65.8,1111122 
LUMCON,ioos:station:LUMCON:101:1,2010-11-08T02:00:00Z,29.2533,-90.6633,62.9,1111122 
LUMCON,ioos:station:LUMCON:101:1,2010-11-08T05:00:00Z,29.2533,-90.6633,60.7,1111122 
LUMCON,ioos:station:LUMCON:101:1,2010-11-08T06:00:00Z,29.2533,-90.6633,67.3,1111122 
LUMCON,ioos:station:LUMCON:101:1,2010-11-08T07:00:00Z,29.2533,-90.6633,69.1,1111122 
LUMCON,ioos:station:LUMCON:101:1,2010-11-08T08:00:00Z,29.2533,-90.6633,72.8,1111122 
LUMCON,ioos:station:LUMCON:101:1,2010-11-08T09:00:00Z,29.2533,-90.6633,75.8,1111122 
LUMCON,ioos:station:LUMCON:101:1,2010-11-08T14:00:00Z,29.2533,-90.6633,70.2,1111122 
LUMCON,ioos:station:LUMCON:101:1,2010-11-08T15:00:00Z,29.2533,-90.6633,58.3,1111122 
LUMCON,ioos:station:LUMCON:101:1,2010-11-08T16:00:00Z,29.2533,-90.6633,54.1,1111122 
LUMCON,ioos:station:LUMCON:101:1,2010-11-08T17:00:00Z,29.2533,-90.6633,55.2,1111122 
LUMCON,ioos:station:LUMCON:101:1,2010-11-08T18:00:00Z,29.2533,-90.6633,54.2,1111122 
LUMCON,ioos:station:LUMCON:101:1,2010-11-08T22:00:00Z,29.2533,-90.6633,57.4,1111122 
LUMCON,ioos:station:LUMCON:101:1,2010-11-08T23:00:00Z,29.2533,-90.6633,65.7,1111122 
LUMCON,ioos:station:LUMCON:101:1,2010-11-09T00:00:00Z,29.2533,-90.6633,75.2,1111122 
LUMCON,ioos:station:LUMCON:101:1,2010-11-09T01:00:00Z,29.2533,-90.6633,79.7,1111122 
LUMCON,ioos:station:LUMCON:101:1,2010-11-09T02:00:00Z,29.2533,-90.6633,84.0,1111122 
LUMCON,ioos:station:LUMCON:101:1,2010-11-09T03:00:00Z,29.2533,-90.6633,86.2,1111122 
LUMCON,ioos:station:LUMCON:101:1,2010-11-09T04:00:00Z,29.2533,-90.6633,84.1,1111122 
LUMCON,ioos:station:LUMCON:101:1,2010-11-09T05:00:00Z,29.2533,-90.6633,83.0,1111122 
LUMCON,ioos:station:LUMCON:101:1,2010-11-09T06:00:00Z,29.2533,-90.6633,82.4,1111122 
LUMCON,ioos:station:LUMCON:101:1,2010-11-09T07:00:00Z,29.2533,-90.6633,89.0,1111122 
LUMCON,ioos:station:LUMCON:101:1,2010-11-09T08:00:00Z,29.2533,-90.6633,87.8,1111122 
LUMCON,ioos:station:LUMCON:101:1,2010-11-09T09:00:00Z,29.2533,-90.6633,88.4,1111122 
LUMCON,ioos:station:LUMCON:101:1,2010-11-09T10:00:00Z,29.2533,-90.6633,87.8,1111122 
LUMCON,ioos:station:LUMCON:101:1,2010-11-09T11:00:00Z,29.2533,-90.6633,87.2,1111122 
LUMCON,ioos:station:LUMCON:101:1,2010-11-09T12:00:00Z,29.2533,-90.6633,87.2,1111122 
LUMCON,ioos:station:LUMCON:101:1,2010-11-09T13:00:00Z,29.2533,-90.6633,86.7,1111122 
LUMCON,ioos:station:LUMCON:101:1,2010-11-09T14:00:00Z,29.2533,-90.6633,82.0,1111122 
LUMCON,ioos:station:LUMCON:101:1,2010-11-09T15:00:00Z,29.2533,-90.6633,77.5,1111122 
LUMCON,ioos:station:LUMCON:101:1,2010-11-09T16:00:00Z,29.2533,-90.6633,75.2,1111122 
LUMCON,ioos:station:LUMCON:101:1,2010-11-09T17:00:00Z,29.2533,-90.6633,72.0,1111122 
LUMCON,ioos:station:LUMCON:101:1,2010-11-09T18:00:00Z,29.2533,-90.6633,67.1,1111122 
LUMCON,ioos:station:LUMCON:101:1,2010-11-09T19:00:00Z,29.2533,-90.6633,65.1,1111122 
LUMCON,ioos:station:LUMCON:101:1,2010-11-09T20:00:00Z,29.2533,-90.6633,65.9,1111122 
LUMCON,ioos:station:LUMCON:101:1,2010-11-09T21:00:00Z,29.2533,-90.6633,65.5,1111122 
LUMCON,ioos:station:LUMCON:101:1,2010-11-09T22:00:00Z,29.2533,-90.6633,69.4,1111122 
LUMCON,ioos:station:LUMCON:101:1,2010-11-09T23:00:00Z,29.2533,-90.6633,75.2,1111122 
LUMCON,ioos:station:LUMCON:101:1,2010-11-10T00:00:00Z,29.2533,-90.6633,80.1,1111122 
LUMCON,ioos:station:LUMCON:101:1,2010-11-10T01:00:00Z,29.2533,-90.6633,82.1,1111122 
LUMCON,ioos:station:LUMCON:101:1,2010-11-10T02:00:00Z,29.2533,-90.6633,83.7,1111122 
LUMCON,ioos:station:LUMCON:101:1,2010-11-10T03:00:00Z,29.2533,-90.6633,83.7,1111122 
LUMCON,ioos:station:LUMCON:101:1,2010-11-10T04:00:00Z,29.2533,-90.6633,85.8,1111122 
LUMCON,ioos:station:LUMCON:101:1,2010-11-10T05:00:00Z,29.2533,-90.6633,86.9,1111122 
LUMCON,ioos:station:LUMCON:101:1,2010-11-10T06:00:00Z,29.2533,-90.6633,89.1,1111122 
LUMCON,ioos:station:LUMCON:101:1,2010-11-10T07:00:00Z,29.2533,-90.6633,90.3,1111122 
LUMCON,ioos:station:LUMCON:101:1,2010-11-10T08:00:00Z,29.2533,-90.6633,89.7,1111122 
LUMCON,ioos:station:LUMCON:101:1,2010-11-10T09:00:00Z,29.2533,-90.6633,90.9,1111122 
LUMCON,ioos:station:LUMCON:101:1,2010-11-10T10:00:00Z,29.2533,-90.6633,91.4,1111122 
LUMCON,ioos:station:LUMCON:101:1,2010-11-10T11:00:00Z,29.2533,-90.6633,92.0,1111122 
LUMCON,ioos:station:LUMCON:101:1,2010-11-10T12:00:00Z,29.2533,-90.6633,91.4,1111122 
LUMCON,ioos:station:LUMCON:101:1,2010-11-10T13:00:00Z,29.2533,-90.6633,91.4,1111122 
LUMCON,ioos:station:LUMCON:101:1,2010-11-10T14:00:00Z,29.2533,-90.6633,85.9,1111122 
LUMCON,ioos:station:LUMCON:101:1,2010-11-10T15:00:00Z,29.2533,-90.6633,84.3,1111122 
LUMCON,ioos:station:LUMCON:101:1,2010-11-10T16:00:00Z,29.2533,-90.6633,81.3,1111122 
LUMCON,ioos:station:LUMCON:101:1,2010-11-10T17:00:00Z,29.2533,-90.6633,75.0,1111122 
LUMCON,ioos:station:LUMCON:101:1,2010-11-10T18:00:00Z,29.2533,-90.6633,71.9,1111122 
LUMCON,ioos:station:LUMCON:101:1,2010-11-10T19:00:00Z,29.2533,-90.6633,70.1,1111122 
LUMCON,ioos:station:LUMCON:101:1,2010-11-10T20:00:00Z,29.2533,-90.6633,68.8,1111122 
LUMCON,ioos:station:LUMCON:101:1,2010-11-10T21:00:00Z,29.2533,-90.6633,66.2,1111122 
LUMCON,ioos:station:LUMCON:101:1,2010-11-10T22:00:00Z,29.2533,-90.6633,69.6,1111122 
LUMCON,ioos:station:LUMCON:101:1,2010-11-10T23:00:00Z,29.2533,-90.6633,75.0,1111122 
LUMCON,ioos:station:LUMCON:101:1,2010-11-11T00:00:00Z,29.2533,-90.6633,80.7,1111122 
LUMCON,ioos:station:LUMCON:101:1,2010-11-11T01:00:00Z,29.2533,-90.6633,77.7,1111122 
LUMCON,ioos:station:LUMCON:101:1,2010-11-11T02:00:00Z,29.2533,-90.6633,81.2,1111122 
LUMCON,ioos:station:LUMCON:101:1,2010-11-11T03:00:00Z,29.2533,-90.6633,87.6,1111122 
LUMCON,ioos:station:LUMCON:101:1,2010-11-11T04:00:00Z,29.2533,-90.6633,89.3,1111122 
LUMCON,ioos:station:LUMCON:101:1,2010-11-11T05:00:00Z,29.2533,-90.6633,90.4,1111122 
LUMCON,ioos:station:LUMCON:101:1,2010-11-11T06:00:00Z,29.2533,-90.6633,90.9,1111122 
LUMCON,ioos:station:LUMCON:101:1,2010-11-11T07:00:00Z,29.2533,-90.6633,92.1,1111122 
LUMCON,ioos:station:LUMCON:101:1,2010-11-11T08:00:00Z,29.2533,-90.6633,92.6,1111122 
LUMCON,ioos:station:LUMCON:101:1,2010-11-11T09:00:00Z,29.2533,-90.6633,92.1,1111122 
LUMCON,ioos:station:LUMCON:101:1,2010-11-11T10:00:00Z,29.2533,-90.6633,92.0,1111122 
LUMCON,ioos:station:LUMCON:101:1,2010-11-11T11:00:00Z,29.2533,-90.6633,92.6,1111122 
LUMCON,ioos:station:LUMCON:101:1,2010-11-11T12:00:00Z,29.2533,-90.6633,90.8,1111122 
LUMCON,ioos:station:LUMCON:101:1,2010-11-11T13:00:00Z,29.2533,-90.6633,87.4,1111122 
LUMCON,ioos:station:LUMCON:101:1,2010-11-11T14:00:00Z,29.2533,-90.6633,81.1,1111122 
LUMCON,ioos:station:LUMCON:101:1,2010-11-11T15:00:00Z,29.2533,-90.6633,76.1,1111122 
LUMCON,ioos:station:LUMCON:101:1,2010-11-11T17:00:00Z,29.2533,-90.6633,64.3,1111122 
LUMCON,ioos:station:LUMCON:101:1,2010-11-11T18:00:00Z,29.2533,-90.6633,61.6,1111122 
LUMCON,ioos:station:LUMCON:101:1,2010-11-11T19:00:00Z,29.2533,-90.6633,63.2,1111122 
LUMCON,ioos:station:LUMCON:101:1,2010-11-11T20:00:00Z,29.2533,-90.6633,59.0,1111122 
LUMCON,ioos:station:LUMCON:101:1,2010-11-11T21:00:00Z,29.2533,-90.6633,59.6,1111122 
LUMCON,ioos:station:LUMCON:101:1,2010-11-11T22:00:00Z,29.2533,-90.6633,54.6,1111122 
LUMCON,ioos:station:LUMCON:101:1,2010-11-11T23:00:00Z,29.2533,-90.6633,59.9,1111122 
LUMCON,ioos:station:LUMCON:101:1,2010-11-12T00:00:00Z,29.2533,-90.6633,67.9,1111122 
LUMCON,ioos:station:LUMCON:101:1,2010-11-12T01:00:00Z,29.2533,-90.6633,71.9,1111122 
LUMCON,ioos:station:LUMCON:101:1,2010-11-12T02:00:00Z,29.2533,-90.6633,80.7,1111122 
LUMCON,ioos:station:LUMCON:101:1,2010-11-12T03:00:00Z,29.2533,-90.6633,80.6,1111122 
LUMCON,ioos:station:LUMCON:101:1,2010-11-12T04:00:00Z,29.2533,-90.6633,84.8,1111122 
LUMCON,ioos:station:LUMCON:101:1,2010-11-12T05:00:00Z,29.2533,-90.6633,88.1,1111122 
LUMCON,ioos:station:LUMCON:101:1,2010-11-12T06:00:00Z,29.2533,-90.6633,89.8,1111122 
LUMCON,ioos:station:LUMCON:101:1,2010-11-12T07:00:00Z,29.2533,-90.6633,90.3,1111122 
LUMCON,ioos:station:LUMCON:101:1,2010-11-12T08:00:00Z,29.2533,-90.6633,90.3,1111122 
LUMCON,ioos:station:LUMCON:101:1,2010-11-12T09:00:00Z,29.2533,-90.6633,91.4,1111122 
LUMCON,ioos:station:LUMCON:101:1,2010-11-12T10:00:00Z,29.2533,-90.6633,92.6,1111122 
LUMCON,ioos:station:LUMCON:101:1,2010-11-12T11:00:00Z,29.2533,-90.6633,93.1,1111122 
LUMCON,ioos:station:LUMCON:101:1,2010-11-12T12:00:00Z,29.2533,-90.6633,93.1,1111122 
LUMCON,ioos:station:LUMCON:101:1,2010-11-12T13:00:00Z,29.2533,-90.6633,91.4,1111122 
LUMCON,ioos:station:LUMCON:101:1,2010-11-12T14:00:00Z,29.2533,-90.6633,85.9,1111122 
LUMCON,ioos:station:LUMCON:101:1,2010-11-12T15:00:00Z,29.2533,-90.6633,75.9,1111122 
LUMCON,ioos:station:LUMCON:101:1,2010-11-12T16:00:00Z,29.2533,-90.6633,68.8,1111122 
LUMCON,ioos:station:LUMCON:101:1,2010-11-12T17:00:00Z,29.2533,-90.6633,63.1,1111122 
LUMCON,ioos:station:LUMCON:101:1,2010-11-12T18:00:00Z,29.2533,-90.6633,59.3,1111122 
LUMCON,ioos:station:LUMCON:101:1,2010-11-12T19:00:00Z,29.2533,-90.6633,59.0,1111122 
LUMCON,ioos:station:LUMCON:101:1,2010-11-12T20:00:00Z,29.2533,-90.6633,60.9,1111122 
LUMCON,ioos:station:LUMCON:101:1,2010-11-12T21:00:00Z,29.2533,-90.6633,62.9,1111122 
LUMCON,ioos:station:LUMCON:101:1,2010-11-12T22:00:00Z,29.2533,-90.6633,63.6,1111122 
LUMCON,ioos:station:LUMCON:101:1,2010-11-12T23:00:00Z,29.2533,-90.6633,69.8,1111122 
LUMCON,ioos:station:LUMCON:101:1,2010-11-13T00:00:00Z,29.2533,-90.6633,77.0,1111122 
LUMCON,ioos:station:LUMCON:101:1,2010-11-13T01:00:00Z,29.2533,-90.6633,81.4,1111122 
LUMCON,ioos:station:LUMCON:101:1,2010-11-13T02:00:00Z,29.2533,-90.6633,80.9,1111122 
LUMCON,ioos:station:LUMCON:101:1,2010-11-13T03:00:00Z,29.2533,-90.6633,82.9,1111122 
LUMCON,ioos:station:LUMCON:101:1,2010-11-13T04:00:00Z,29.2533,-90.6633,84.0,1111122 
LUMCON,ioos:station:LUMCON:101:1,2010-11-13T05:00:00Z,29.2533,-90.6633,84.5,1111122 
LUMCON,ioos:station:LUMCON:101:1,2010-11-13T06:00:00Z,29.2533,-90.6633,85.0,1111122 
LUMCON,ioos:station:LUMCON:101:1,2010-11-13T07:00:00Z,29.2533,-90.6633,83.4,1111122 
LUMCON,ioos:station:LUMCON:101:1,2010-11-13T08:00:00Z,29.2533,-90.6633,82.3,1111122 
LUMCON,ioos:station:LUMCON:101:1,2010-11-13T10:00:00Z,29.2533,-90.6633,81.3,1111122 
LUMCON,ioos:station:LUMCON:101:1,2010-11-13T12:00:00Z,29.2533,-90.6633,83.9,1111122 
LUMCON,ioos:station:LUMCON:101:1,2010-11-13T14:00:00Z,29.2533,-90.6633,76.9,1111122 
LUMCON,ioos:station:LUMCON:101:1,2010-11-13T15:00:00Z,29.2533,-90.6633,72.8,1111122 
LUMCON,ioos:station:LUMCON:101:1,2010-11-13T16:00:00Z,29.2533,-90.6633,69.7,1111122 
LUMCON,ioos:station:LUMCON:101:1,2010-11-13T17:00:00Z,29.2533,-90.6633,68.8,1111122 
LUMCON,ioos:station:LUMCON:101:1,2010-11-13T18:00:00Z,29.2533,-90.6633,63.9,1111122 
LUMCON,ioos:station:LUMCON:101:1,2010-11-13T19:00:00Z,29.2533,-90.6633,65.1,1111122 
LUMCON,ioos:station:LUMCON:101:1,2010-11-13T20:00:00Z,29.2533,-90.6633,65.0,1111122 
LUMCON,ioos:station:LUMCON:101:1,2010-11-13T21:00:00Z,29.2533,-90.6633,67.5,1111122 
LUMCON,ioos:station:LUMCON:101:1,2010-11-15T16:00:00Z,29.2533,-90.6633,91.0,1111122 
LUMCON,ioos:station:LUMCON:101:1,2010-11-15T17:00:00Z,29.2533,-90.6633,92.7,1111122 
LUMCON,ioos:station:LUMCON:101:1,2010-11-15T18:00:00Z,29.2533,-90.6633,89.9,1111122 
LUMCON,ioos:station:LUMCON:101:1,2010-11-15T19:00:00Z,29.2533,-90.6633,91.6,1111122 
LUMCON,ioos:station:LUMCON:101:1,2010-11-15T20:00:00Z,29.2533,-90.6633,93.3,1111122 
LUMCON,ioos:station:LUMCON:101:1,2010-11-15T21:00:00Z,29.2533,-90.6633,92.7,1111122 
LUMCON,ioos:station:LUMCON:101:1,2010-11-15T22:00:00Z,29.2533,-90.6633,92.1,1111122 
LUMCON,ioos:station:LUMCON:101:1,2010-11-15T23:00:00Z,29.2533,-90.6633,91.0,1111122 
LUMCON,ioos:station:LUMCON:101:1,2010-11-16T00:00:00Z,29.2533,-90.6633,91.5,1111122 
LUMCON,ioos:station:LUMCON:101:1,2010-11-16T01:00:00Z,29.2533,-90.6633,89.9,1111122 
LUMCON,ioos:station:LUMCON:101:1,2010-11-16T02:00:00Z,29.2533,-90.6633,93.9,1111122 
LUMCON,ioos:station:LUMCON:101:1,2010-11-16T03:00:00Z,29.2533,-90.6633,93.8,1111122 
LUMCON,ioos:station:LUMCON:101:1,2010-11-16T04:00:00Z,29.2533,-90.6633,93.8,1111122 
LUMCON,ioos:station:LUMCON:101:1,2010-11-16T05:00:00Z,29.2533,-90.6633,92.1,1111122 
LUMCON,ioos:station:LUMCON:101:1,2010-11-16T06:00:00Z,29.2533,-90.6633,90.9,1111122 
LUMCON,ioos:station:LUMCON:101:1,2010-11-16T07:00:00Z,29.2533,-90.6633,90.4,1111122 
LUMCON,ioos:station:LUMCON:101:1,2010-11-16T08:00:00Z,29.2533,-90.6633,91.5,1111122 
LUMCON,ioos:station:LUMCON:101:1,2010-11-16T09:00:00Z,29.2533,-90.6633,92.7,1111122 
LUMCON,ioos:station:LUMCON:101:1,2010-11-16T10:00:00Z,29.2533,-90.6633,93.3,1111122 
LUMCON,ioos:station:LUMCON:101:1,2010-11-16T11:00:00Z,29.2533,-90.6633,89.3,1111122 
LUMCON,ioos:station:LUMCON:101:1,2010-11-16T12:00:00Z,29.2533,-90.6633,89.8,1111122 
LUMCON,ioos:station:LUMCON:101:1,2010-11-16T13:00:00Z,29.2533,-90.6633,91.5,1111122 
LUMCON,ioos:station:LUMCON:101:1,2010-11-16T14:00:00Z,29.2533,-90.6633,93.2,1111122 
LUMCON,ioos:station:LUMCON:101:1,2010-11-16T15:00:00Z,29.2533,-90.6633,88.1,1111122 
LUMCON,ioos:station:LUMCON:101:1,2010-11-16T16:00:00Z,29.2533,-90.6633,80.2,1111122 
LUMCON,ioos:station:LUMCON:101:1,2010-11-16T17:00:00Z,29.2533,-90.6633,79.0,1111122 
LUMCON,ioos:station:LUMCON:101:1,2010-11-16T18:00:00Z,29.2533,-90.6633,73.2,1111122 
LUMCON,ioos:station:LUMCON:101:1,2010-11-16T19:00:00Z,29.2533,-90.6633,67.3,1111122 
LUMCON,ioos:station:LUMCON:101:1,2010-11-16T20:00:00Z,29.2533,-90.6633,63.9,1111122 
LUMCON,ioos:station:LUMCON:101:1,2010-11-16T21:00:00Z,29.2533,-90.6633,65.2,1111122 
LUMCON,ioos:station:LUMCON:101:1,2010-11-16T22:00:00Z,29.2533,-90.6633,63.8,1111122 
LUMCON,ioos:station:LUMCON:101:1,2010-11-16T23:00:00Z,29.2533,-90.6633,67.5,1111122 
LUMCON,ioos:station:LUMCON:101:1,2010-11-17T00:00:00Z,29.2533,-90.6633,70.1,1111122 
LUMCON,ioos:station:LUMCON:101:1,2010-11-17T01:00:00Z,29.2533,-90.6633,73.7,1111122 
LUMCON,ioos:station:LUMCON:101:1,2010-11-17T02:00:00Z,29.2533,-90.6633,71.2,1111122 
LUMCON,ioos:station:LUMCON:101:1,2010-11-17T03:00:00Z,29.2533,-90.6633,71.0,1111122 
LUMCON,ioos:station:LUMCON:101:1,2010-11-17T04:00:00Z,29.2533,-90.6633,70.0,1111122 
LUMCON,ioos:station:LUMCON:101:1,2010-11-17T05:00:00Z,29.2533,-90.6633,72.6,1111122 
LUMCON,ioos:station:LUMCON:101:1,2010-11-17T06:00:00Z,29.2533,-90.6633,77.1,1111122 
LUMCON,ioos:station:LUMCON:101:1,2010-11-17T07:00:00Z,29.2533,-90.6633,78.6,1111122 
LUMCON,ioos:station:LUMCON:101:1,2010-11-17T08:00:00Z,29.2533,-90.6633,78.0,1111122 
LUMCON,ioos:station:LUMCON:101:1,2010-11-17T09:00:00Z,29.2533,-90.6633,74.4,1111122 
LUMCON,ioos:station:LUMCON:101:1,2010-11-17T10:00:00Z,29.2533,-90.6633,78.0,1111122 
LUMCON,ioos:station:LUMCON:101:1,2010-11-17T12:00:00Z,29.2533,-90.6633,79.1,1111122 
LUMCON,ioos:station:LUMCON:101:1,2010-11-17T13:00:00Z,29.2533,-90.6633,83.0,1111122 
LUMCON,ioos:station:LUMCON:101:1,2010-11-17T14:00:00Z,29.2533,-90.6633,81.0,1111122 
LUMCON,ioos:station:LUMCON:101:1,2010-11-17T15:00:00Z,29.2533,-90.6633,76.5,1111122 
LUMCON,ioos:station:LUMCON:101:1,2010-11-17T16:00:00Z,29.2533,-90.6633,71.4,1111122 
LUMCON,ioos:station:LUMCON:101:1,2010-11-17T17:00:00Z,29.2533,-90.6633,67.4,1111122 
LUMCON,ioos:station:LUMCON:101:1,2010-11-17T18:00:00Z,29.2533,-90.6633,62.9,1111122 
LUMCON,ioos:station:LUMCON:101:1,2010-11-17T19:00:00Z,29.2533,-90.6633,58.2,1111122 
LUMCON,ioos:station:LUMCON:101:1,2010-11-17T20:00:00Z,29.2533,-90.6633,60.7,1111122 
LUMCON,ioos:station:LUMCON:101:1,2010-11-17T21:00:00Z,29.2533,-90.6633,62.3,1111122 
LUMCON,ioos:station:LUMCON:101:1,2010-11-17T22:00:00Z,29.2533,-90.6633,63.9,1111122 
LUMCON,ioos:station:LUMCON:101:1,2010-11-17T23:00:00Z,29.2533,-90.6633,69.8,1111122 
LUMCON,ioos:station:LUMCON:101:1,2010-11-18T00:00:00Z,29.2533,-90.6633,74.9,1111122 
LUMCON,ioos:station:LUMCON:101:1,2010-11-18T01:00:00Z,29.2533,-90.6633,75.9,1111122 
LUMCON,ioos:station:LUMCON:101:1,2010-11-18T02:00:00Z,29.2533,-90.6633,77.4,1111122 
LUMCON,ioos:station:LUMCON:101:1,2010-11-18T03:00:00Z,29.2533,-90.6633,78.9,1111122 
LUMCON,ioos:station:LUMCON:101:1,2010-11-18T04:00:00Z,29.2533,-90.6633,79.9,1111122 
LUMCON,ioos:station:LUMCON:101:1,2010-11-18T05:00:00Z,29.2533,-90.6633,83.1,1111122 
LUMCON,ioos:station:LUMCON:101:1,2010-11-18T06:00:00Z,29.2533,-90.6633,85.8,1111122 
LUMCON,ioos:station:LUMCON:101:1,2010-11-18T07:00:00Z,29.2533,-90.6633,87.5,1111122 
LUMCON,ioos:station:LUMCON:101:1,2010-11-18T08:00:00Z,29.2533,-90.6633,88.1,1111122 
LUMCON,ioos:station:LUMCON:101:1,2010-11-18T09:00:00Z,29.2533,-90.6633,88.1,1111122 
LUMCON,ioos:station:LUMCON:101:1,2010-11-18T10:00:00Z,29.2533,-90.6633,85.9,1111122 
LUMCON,ioos:station:LUMCON:101:1,2010-11-18T11:00:00Z,29.2533,-90.6633,86.5,1111122 
LUMCON,ioos:station:LUMCON:101:1,2010-11-18T12:00:00Z,29.2533,-90.6633,86.5,1111122 
LUMCON,ioos:station:LUMCON:101:1,2010-11-18T13:00:00Z,29.2533,-90.6633,89.7,1111122 
LUMCON,ioos:station:LUMCON:101:1,2010-11-18T14:00:00Z,29.2533,-90.6633,84.6,1111122 
LUMCON,ioos:station:LUMCON:101:1,2010-11-18T15:00:00Z,29.2533,-90.6633,79.7,1111122 
LUMCON,ioos:station:LUMCON:101:1,2010-11-18T16:00:00Z,29.2533,-90.6633,75.6,1111122 
LUMCON,ioos:station:LUMCON:101:1,2010-11-18T18:00:00Z,29.2533,-90.6633,57.8,1111122 
LUMCON,ioos:station:LUMCON:101:1,2010-11-18T19:00:00Z,29.2533,-90.6633,51.8,1111122 
LUMCON,ioos:station:LUMCON:101:1,2010-11-18T20:00:00Z,29.2533,-90.6633,53.9,1111122 
LUMCON,ioos:station:LUMCON:101:1,2010-11-18T21:00:00Z,29.2533,-90.6633,51.9,1111122 